ATLAS 5 CENTAUR DEB, 44670

Orbit data source: Space-Track

ATLAS 5 CENTAUR DEB, 44670 is space debris in HEO originally from a launch on Wed, 17 Oct 2018 UTC launched from the Air Force Eastern Test Range (AFETR). Debris objects in space refer to the collection of defunct objects orbiting the Earth. Examples of debris include non-operational satellites, rocket bodies, and fragments generated from explosions, collisions, or faulty payload assembly.

Loading next visibility...
Identifier
44670, 2018-079AG
Orbit
HEO
Last TLE update
1 day ago
Origin
Manufacturer
ULA Decatur
Mission
Spacecraft
Bus & Motor
Unknown
Mass
Unknown
Launch date (UTC)
2018-10-17 (7 years ago)
Launch vehicle
Unknown
Launch site
Air Force Eastern Test Range (AFETR)
Object type
Payload
Rocket body
Debris
Shape & HBR
Unknown
Radar Cross Section
Large (>1 m²)

Expand to show TLE details & history

TLE from 1 day ago
0 ATLAS 5 CENTAUR DEB
1 44670U 18079AG  25127.88545943 -.00000060  00000-0  00000-0 0  9996
2 44670  12.8311  69.8614 4642246 248.1522  57.2302  1.82912805 39642
Epoch: 2025-05-07T21:15Z
Definitive object data (Epoch: 2025-05-07T21:15:03.694Z)
Latitude
0.00001°
Longitude
-114.95693°
Altitude
20,401.434 km
Speed
3.957 km/s
True Right ascension
04h 39m 05s
True Declination
0° 00' 00"
Sunlit
Object was in daylight at TLE epoch
Visualization TLE readout
Latitude
12.79109°
Longitude
-29.78562°
Altitude
33,452.593 km
Speed
2.429 km/s
Apparent Right ascension
09h 56m 13s
Apparent Declination
7° 32' 30"
Sunlit
Object is in daylight
Visualization observer readout
Local Sidereal Time
13:34:00
Azimuth
251.544° W
Elevation
31.756°
Doppler factor
1
Orbital elements
Apogee altitude
34,978.545 km
Perigee altitude
8,754.714 km
Semi-major axis
28,244.767 km
Eccentricity
0.4642246
Inclination
12.8311°
RAAN
69.8614°
Arg. of periapsis
248.1522°
True anomaly
111.90095°
Mean anomaly
57.2302°
Eccentric anomaly
83.66594°
Mean motion
0.45723 °/min
BSTAR
Unknown
Orbital period
787.35 mins
Loading maneuver chart data...
Loading SW <> Apogee altitude chart data...

ATLAS 5 CENTAUR DEB Visibility forecast

Observer location: undefined°, undefined°

Span
Click to sort rows by Start time (UTC) header in descending order
Start Az.
Max El. time (UTC)
Max El. Az.
Max El.
End time (UTC)
End Az.
296 mins2025-05-09 05:25:20.886Z251.525° W2025-05-09 05:25:20.886Z251.525° W27.752°2025-05-09 10:21:20.886Z149.343° SSE
|